Printer-friendly version

IAU Minor Planet Center

Minor Planet Center

MPEC 2006-F58 : 2006 FV35

The following Minor Planet Electronic Circular may be linked-to from your own Web pages, but must not otherwise be redistributed electronically.


Read MPEC 2006-F57 Read MPEC 2006-F59


M.P.E.C. 2006-F58                                Issued 2006 Mar. 31, 11:57 UT

     The Minor Planet Electronic Circulars contain information on unusual
         minor planets and routine data on comets.  They are published
   on behalf of Commission 20 of the International Astronomical Union by the
          Minor Planet Center, Smithsonian Astrophysical Observatory,
                          Cambridge, MA 02138, U.S.A.

                  Supported in part by the Brinson Foundation
                  Supported in part by the TABASGO Foundation
             Prepared using the Tamkin Foundation Computer Network

                              MPC@CFA.HARVARD.EDU
          URL http://cfa-www.harvard.edu/iau/mpc.html  ISSN 1523-6714

                                   2006 FV35

Observations:
     K06F35V* C2006 03 29.20414 12 38 49.93 +00 27 25.6          21.0 V EF058691
     K06F35V  C2006 03 29.22140 12 38 46.79 +00 28 03.5          21.2 V EF058691
     K06F35V  C2006 03 29.23866 12 38 43.63 +00 28 40.6          20.5 V EF058691
     K06F35V  C2006 03 30.43463 12 35 12.50 +01 12 44.6          20.1 R EF058474
     K06F35V  C2006 03 30.44120 12 35 11.27 +01 12 58.6          19.8 R EF058474
     K06F35V  C2006 03 30.44479 12 35 10.63 +01 13 07.0          19.9 R EF058474
     K06F35V  C2006 03 31.29132 12 32 38.20 +01 43 37.5                 EF058H36
     K06F35V  C2006 03 31.30503 12 32 35.85 +01 44 04.6          20.6 R EF058H36
     K06F35V  C2006 03 31.44850 12 32 10.72 +01 50 00.0          20.1 R EF058474
     K06F35V  C2006 03 31.45082 12 32 10.32 +01 50 05.2          19.6 R EF058474
     K06F35V  C2006 03 31.45567 12 32 09.40 +01 50 15.6          20.0 R EF058474

Observer details:
474 Mount John Observatory, Lake Tekapo.  Observer A. C. Gilmore.  1.0-m f/7.7
    reflector + CCD.
691 Steward Observatory, Kitt Peak.  Observer J. V. Scotti.  0.9-m f/3
    reflector + CCD.
H36 Sandlot Observatory, Scranton.  Observer G. Hug.  0.30-m
    Schmidt-Cassegrain + CCD.

Orbital elements:
2006 FV35                                                Earth MOID = 0.1023 AU
Epoch 2006 Mar. 6.0 TT = JDT 2453800.5                  MPC
M 193.51416              (2000.0)            P               Q
n   0.98308366     Peri.  170.66882     +0.98533411     +0.17063291
a   1.0017109      Node   179.50293     -0.16329834     +0.94472204
e   0.3713890      Incl.    6.92175     -0.04950087     +0.27997262
P   1.00           H   21.9           G   0.15           U   9
Residuals in seconds of arc
060329 691  0.0   0.1-    060330 474  0.3-  0.5-    060331 474  0.1-  0.2+
060329 691  0.1+  0.3+    060330 474  0.1+  0.0     060331 474  0.4+  0.3+
060329 691  0.0   0.0     060331 H36  0.2-  0.0     060331 474  0.3+  0.1-
060330 474  0.1-  0.0     060331 H36 (3.3+  3.2-)

Ephemeris:
2006 FV35                a,e,i = 1.00, 0.37, 7                   q = 0.6297
Date    TT    R. A. (2000) Decl.     Delta      r     Elong.  Phase     V
2006 03 26    12 47.88   -01 25.8    0.345    1.341   172.7     5.4    20.7
2006 04 05    12 18.26   +04 38.4    0.325    1.318   166.0    10.6    20.7
2006 04 15    11 48.29   +10 27.0    0.326    1.289   147.3    24.8    21.2
2006 04 25    11 23.55   +14 59.0    0.342    1.255   130.3    37.7    21.6
2006 05 05    11 06.86   +17 59.4    0.367    1.215   115.9    48.3    22.0

Timothy B. Spahr             (C) Copyright 2006 MPC           M.P.E.C. 2006-F58

Read MPEC 2006-F57 Read MPEC 2006-F59


Our Web policy. Index to the CBAT/MPC/ICQ pages.


Valid HTML 4.01!